Flag for Gambia Weather past 2 weeks in Serekunda, Gambia

Now
77 °F

Scattered clouds.


Feels Like: 78 °F
Forecast: 78 / 85 °F
Wind: 6 mph from North

Location: Banjul / Yundum

Current Time: Aug 30, 2014 at 8:38:29 AM

Latest Report: Aug 30, 2014 at 8:00 AM


Visibility: N/A

Pressure: 29.89 "Hg

Humidity: 94%

Dew point: 75 °F

Location of SerekundaLocation

Historic Weather in Serekunda — Graph

°F

Serekunda temperature yesterday

Maximum temperature yesterday: 86 °F (at 11:00 AM)
Minimum temperature yesterday: 77 °F (at 7:00 AM)
Average temperature yesterday: 81 °F

Past Weeks' High & Low Weather Summary

 TemperatureHumidityPressure
High90 °F (Aug 27, 3:00 PM)100% (Aug 15, 9:00 AM)29.98 "Hg (Aug 15, 9:00 AM)
Low72 °F (Aug 27, 8:00 PM)26% (Aug 21, 9:00 AM)29.77 "Hg (Aug 17, 5:00 PM)
Average79 °F89%29.88 "Hg
* Reported Aug 15 8:00 AM — Aug 30 7:00 AM, Serekunda, Weather by CustomWeather, © 2014

Note: Actual official high and low records may vary slightly from our data, if they occured in-between our weather recording intervals... More about our weather records

Advertising

Serekunda weather history for previous 24 hours

 ConditionsComfort  
Time TempWeatherWind HumidityBarometerVisibility
7:00 AM
Aug 30
75 °FScattered clouds.No wind100%29.89 "HgN/A
6:00 AM75 °FPassing clouds.No wind100%29.89 "HgN/A
5:00 AM77 °FPassing clouds.2 mph94%29.86 "HgN/A
4:00 AM77 °FPassing clouds.5 mph94%29.89 "HgN/A
3:00 AM77 °FPassing clouds.5 mph94%29.89 "HgN/A
2:00 AM77 °FPassing clouds.5 mph94%29.89 "HgN/A
1:00 AM77 °FPassing clouds.No wind94%29.89 "HgN/A
12:00 AM77 °FPassing clouds.5 mph94%29.92 "HgN/A
11:00 PM
Aug 29
79 °FPassing clouds.No wind89%29.92 "HgN/A
10:00 PM79 °FPassing clouds.7 mph94%29.89 "HgN/A
9:00 PM79 °FPassing clouds.7 mph94%29.89 "HgN/A
7:00 PM82 °FPassing clouds.6 mph84%29.86 "HgN/A
6:00 PM84 °FScattered clouds.12 mph74%29.86 "HgN/A
5:00 PM84 °FPartly sunny.8 mph79%29.86 "HgN/A
4:00 PM86 °FPartly sunny.20 mph75%29.86 "HgN/A
3:00 PM86 °FPartly sunny.17 mph75%29.86 "HgN/A
2:00 PM84 °FPartly sunny.14 mph84%29.89 "HgN/A
1:00 PM84 °FPartly sunny.10 mph84%29.86 "HgN/A
12:00 PM86 °FPartly sunny.8 mph79%29.89 "HgN/A
11:00 AM86 °FPartly sunny.No wind79%29.89 "HgN/A
10:00 AM84 °FPartly sunny.No wind84%29.89 "HgN/A
9:00 AM81 °FLight rain. Scattered clouds.No wind94%29.86 "Hg6 mi
8:00 AM77 °FBroken clouds.No wind100%29.86 "HgN/A
Weather by CustomWeather, © 2014

See weather overviewHow to use our weather pages